Radiation Dose at Monitoring Post of Fukushima Daini Nuclear Power Station
Date,Time,MP-1(microSv/h),MP-2(microSv/h),MP-3(microSv/h),MP-4(microSv/h),MP-5(microSv/h),MP-6(microSv/h),MP-7(microSv/h),Wind Direction,Wind Velocity(m/s),Rain
2018/05/13,00:00,0.312,0.196,0.321,0.308,0.302,0.159,0.098,north,1.8,No
2018/05/13,00:10,0.311,0.197,0.321,0.306,0.300,0.161,0.098,north,3.1,No
2018/05/13,00:20,0.313,0.197,0.321,0.308,0.303,0.160,0.098,north,2.7,No
2018/05/13,00:30,0.311,0.197,0.322,0.305,0.299,0.161,0.097,north-northwest,1.9,No
2018/05/13,00:40,0.314,0.198,0.321,0.308,0.302,0.160,0.098,north-northwest,2.2,No
2018/05/13,00:50,0.311,0.197,0.322,0.308,0.300,0.160,0.098,north,1.2,No
2018/05/13,01:00,0.312,0.198,0.320,0.307,0.301,0.160,0.098,north-northeast,1.5,No
2018/05/13,01:10,0.311,0.197,0.322,0.308,0.299,0.160,0.097,north-northeast,1.7,No
2018/05/13,01:20,0.312,0.197,0.321,0.306,0.301,0.160,0.098,north,0.9,No
2018/05/13,01:30,0.312,0.198,0.321,0.306,0.301,0.160,0.098,northwest,0.9,No
2018/05/13,01:40,0.312,0.196,0.320,0.306,0.300,0.161,0.098,north-northeast,1.1,No
2018/05/13,01:50,0.313,0.196,0.320,0.307,0.304,0.160,0.099,northeast,0.8,No
2018/05/13,02:00,0.312,0.197,0.320,0.307,0.300,0.160,0.097,-,CALM,No
2018/05/13,02:10,0.312,0.196,0.320,0.306,0.302,0.160,0.098,east-northeast,1.7,No
2018/05/13,02:20,0.311,0.197,0.321,0.307,0.301,0.160,0.098,northeast,1.2,No
2018/05/13,02:30,0.314,0.197,0.320,0.307,0.302,0.160,0.099,east-northeast,0.7,No
2018/05/13,02:40,0.311,0.198,0.321,0.308,0.300,0.161,0.099,south,1.3,No
2018/05/13,02:50,0.313,0.196,0.320,0.305,0.303,0.159,0.098,south,2.6,No
2018/05/13,03:00,0.311,0.197,0.322,0.307,0.301,0.160,0.099,south-southwest,2.6,No
2018/05/13,03:10,0.314,0.197,0.320,0.307,0.304,0.160,0.098,south-southwest,2.7,No
2018/05/13,03:20,0.312,0.197,0.322,0.307,0.300,0.161,0.099,south,2.8,No
2018/05/13,03:30,0.313,0.198,0.321,0.308,0.304,0.160,0.098,south,2.3,No
2018/05/13,03:40,0.312,0.197,0.321,0.308,0.300,0.161,0.098,south,1.2,No
2018/05/13,03:50,0.313,0.199,0.323,0.308,0.303,0.160,0.099,south,1.0,No
2018/05/13,04:00,0.312,0.198,0.320,0.305,0.300,0.160,0.099,south,0.8,No
2018/05/13,04:10,0.313,0.198,0.323,0.308,0.304,0.161,0.100,south,1.6,No
2018/05/13,04:20,0.312,0.197,0.321,0.307,0.299,0.161,0.099,south,2.0,No
2018/05/13,04:30,0.311,0.199,0.323,0.308,0.304,0.161,0.099,south,0.8,No
2018/05/13,04:40,0.314,0.199,0.321,0.309,0.300,0.161,0.100,south-southwest,0.7,No
2018/05/13,04:50,0.312,0.197,0.324,0.310,0.304,0.161,0.099,south-southwest,3.0,No
2018/05/13,05:00,0.313,0.198,0.323,0.308,0.300,0.161,0.099,south-southwest,3.6,No
2018/05/13,05:10,0.312,0.197,0.321,0.307,0.304,0.161,0.099,south-southwest,2.8,No
2018/05/13,05:20,0.313,0.198,0.323,0.309,0.303,0.161,0.100,south-southwest,3.1,No
2018/05/13,05:30,0.312,0.197,0.321,0.307,0.303,0.161,0.099,south,3.0,No
2018/05/13,05:40,0.313,0.198,0.322,0.309,0.303,0.160,0.100,south-southwest,2.8,No
2018/05/13,05:50,0.313,0.197,0.322,0.308,0.304,0.161,0.099,south,3.3,No
2018/05/13,06:00,0.312,0.197,0.323,0.309,0.301,0.160,0.098,south-southwest,3.5,No
2018/05/13,06:10,0.313,0.197,0.321,0.306,0.302,0.161,0.099,south-southwest,4.1,No
2018/05/13,06:20,0.311,0.199,0.324,0.309,0.303,0.160,0.099,south-southwest,5.0,No
2018/05/13,06:30,0.313,0.198,0.322,0.308,0.301,0.162,0.098,south,3.8,No
2018/05/13,06:40,0.311,0.198,0.322,0.308,0.303,0.160,0.098,south,3.0,Yes
2018/05/13,06:50,0.314,0.198,0.322,0.309,0.301,0.161,0.099,-,CALM,Yes
2018/05/13,07:00,0.311,0.198,0.320,0.307,0.301,0.160,0.099,south-southwest,2.1,No
2018/05/13,07:10,0.313,0.198,0.323,0.307,0.302,0.161,0.098,south-southwest,2.1,No
2018/05/13,07:20,0.310,0.197,0.319,0.307,0.301,0.159,0.098,south-southwest,2.2,No
2018/05/13,07:30,0.312,0.196,0.322,0.306,0.300,0.160,0.097,south-southwest,3.8,No
2018/05/13,07:40,0.310,0.195,0.320,0.307,0.298,0.160,0.097,south-southwest,2.8,No
2018/05/13,07:50,0.310,0.196,0.321,0.307,0.302,0.159,0.097,south,1.8,No
2018/05/13,08:00,0.311,0.197,0.321,0.308,0.299,0.159,0.098,south-southwest,1.7,No
2018/05/13,08:10,0.310,0.194,0.319,0.305,0.300,0.159,0.097,south,1.9,No
2018/05/13,08:20,0.312,0.196,0.320,0.307,0.302,0.159,0.096,south-southwest,2.0,No
2018/05/13,08:30,0.309,0.196,0.318,0.305,0.298,0.158,0.096,south,3.9,No
2018/05/13,08:40,0.311,0.196,0.320,0.305,0.302,0.160,0.097,south,3.8,No
2018/05/13,08:50,0.310,0.196,0.318,0.305,0.299,0.160,0.096,south,2.9,No
2018/05/13,09:00,0.310,0.194,0.319,0.304,0.298,0.159,0.098,south,3.0,No
2018/05/13,09:10,0.310,0.197,0.319,0.307,0.302,0.161,0.096,south,3.2,No
2018/05/13,09:20,0.308,0.196,0.319,0.305,0.298,0.159,0.097,south,2.7,No
2018/05/13,09:30,0.312,0.196,0.320,0.304,0.296,0.159,0.097,south,3.1,No
2018/05/13,09:40,0.312,0.197,0.318,0.306,0.301,0.160,0.096,south,4.8,No
2018/05/13,09:50,0.308,0.195,0.321,0.305,0.299,0.158,0.097,south,4.1,No
2018/05/13,10:00,0.311,0.195,0.319,0.303,0.297,0.159,0.097,south,4.8,No
2018/05/13,10:10,0.310,0.196,0.319,0.307,0.302,0.159,0.096,south,2.6,No
2018/05/13,10:20,0.309,0.195,0.320,0.304,0.300,0.158,0.097,south,4.0,No
2018/05/13,10:30,0.313,0.197,0.318,0.306,0.297,0.159,0.096,south,3.8,No
2018/05/13,10:40,0.308,0.195,0.319,0.306,0.303,0.157,0.097,south,3.9,No
2018/05/13,10:50,0.311,0.197,0.320,0.304,0.300,0.159,0.097,south,4.9,No
2018/05/13,11:00,0.310,0.196,0.319,0.306,0.298,0.159,0.096,south,7.0,No
2018/05/13,11:10,0.308,0.195,0.321,0.303,0.302,0.158,0.097,south,6.4,No
2018/05/13,11:20,0.312,0.196,0.318,0.306,0.300,0.159,0.096,south,6.9,No
2018/05/13,11:30,0.309,0.196,0.321,0.306,0.298,0.158,0.096,south,8.2,No
2018/05/13,11:40,0.313,0.197,0.319,0.305,0.302,0.158,0.097,south,7.3,Yes
2018/05/13,11:50,0.310,0.197,0.319,0.308,0.299,0.159,0.096,south,6.5,Yes
2018/05/13,12:00,0.311,0.197,0.322,0.304,0.303,0.159,0.098,south,5.4,Yes
2018/05/13,12:10,0.313,0.198,0.320,0.310,0.300,0.161,0.098,south,4.4,Yes
2018/05/13,12:20,0.310,0.198,0.325,0.309,0.303,0.161,0.099,south,5.7,Yes
2018/05/13,12:30,0.316,0.201,0.323,0.312,0.304,0.162,0.101,south,6.3,Yes
2018/05/13,12:40,0.316,0.202,0.327,0.313,0.304,0.164,0.102,south-southwest,6.6,Yes
2018/05/13,12:50,0.319,0.203,0.326,0.313,0.307,0.165,0.102,south-southwest,6.5,Yes
2018/05/13,13:00,0.314,0.202,0.328,0.312,0.303,0.166,0.102,south-southwest,6.2,Yes
2018/05/13,13:10,0.317,0.202,0.324,0.311,0.306,0.165,0.101,south-southwest,5.5,Yes
2018/05/13,13:20,0.315,0.200,0.324,0.311,0.302,0.164,0.100,south-southwest,5.7,Yes
2018/05/13,13:30,0.313,0.201,0.324,0.309,0.304,0.163,0.101,south,5.8,Yes
2018/05/13,13:40,0.315,0.200,0.322,0.311,0.304,0.163,0.101,south,5.9,Yes
2018/05/13,13:50,0.311,0.198,0.324,0.307,0.300,0.162,0.100,south,6.3,No
2018/05/13,14:00,0.313,0.199,0.321,0.309,0.303,0.161,0.099,south,7.9,No
2018/05/13,14:10,0.313,0.196,0.324,0.307,0.300,0.161,0.100,south,9.3,Yes
2018/05/13,14:20,0.310,0.198,0.320,0.308,0.302,0.161,0.099,south,7.8,Yes
2018/05/13,14:30,0.313,0.198,0.323,0.308,0.304,0.163,0.099,south,6.9,Yes
2018/05/13,14:40,0.310,0.199,0.323,0.306,0.301,0.162,0.099,south,5.5,Yes
2018/05/13,14:50,0.315,0.198,0.321,0.310,0.305,0.161,0.099,south-southwest,4.4,Yes
2018/05/13,15:00,0.311,0.198,0.323,0.307,0.301,0.162,0.100,south,3.9,Yes
2018/05/13,15:10,0.314,0.199,0.321,0.308,0.303,0.161,0.100,south-southwest,4.1,Yes
2018/05/13,15:20,0.313,0.198,0.324,0.309,0.303,0.163,0.100,south-southwest,3.2,Yes
2018/05/13,15:30,0.313,0.199,0.321,0.308,0.303,0.162,0.099,south-southwest,3.9,Yes
2018/05/13,15:40,0.314,0.198,0.323,0.309,0.305,0.163,0.100,southwest,3.5,Yes
2018/05/13,15:50,0.311,0.198,0.321,0.308,0.300,0.161,0.100,southwest,3.3,Yes
2018/05/13,16:00,0.315,0.198,0.322,0.310,0.303,0.161,0.100,southwest,3.0,Yes
2018/05/13,16:10,0.311,0.199,0.324,0.308,0.302,0.162,0.100,south-southwest,3.8,Yes
2018/05/13,16:20,0.316,0.198,0.321,0.311,0.302,0.162,0.100,southwest,3.9,Yes
2018/05/13,16:30,0.311,0.199,0.322,0.307,0.303,0.164,0.100,south-southwest,4.5,Yes
2018/05/13,16:40,0.313,0.197,0.320,0.308,0.300,0.162,0.099,south-southwest,5.7,Yes
2018/05/13,16:50,0.312,0.198,0.322,0.307,0.301,0.163,0.100,south-southwest,7.0,Yes
2018/05/13,17:00,0.314,0.198,0.321,0.309,0.299,0.162,0.100,south-southwest,6.9,Yes
2018/05/13,17:10,0.312,0.198,0.321,0.306,0.303,0.162,0.100,southwest,7.7,Yes
2018/05/13,17:20,0.312,0.198,0.319,0.308,0.298,0.161,0.100,south-southwest,6.8,Yes
2018/05/13,17:30,0.312,0.198,0.322,0.304,0.302,0.162,0.099,south-southwest,6.9,Yes
2018/05/13,17:40,0.309,0.197,0.321,0.306,0.300,0.161,0.100,south-southwest,9.0,Yes
2018/05/13,17:50,0.310,0.197,0.320,0.305,0.301,0.161,0.098,south-southwest,10.9,Yes
2018/05/13,18:00,0.311,0.197,0.318,0.305,0.297,0.161,0.100,south,10.1,Yes
2018/05/13,18:10,0.310,0.197,0.319,0.304,0.301,0.162,0.098,south,12.2,Yes
2018/05/13,18:20,0.310,0.197,0.319,0.306,0.296,0.160,0.099,south,14.5,Yes
2018/05/13,18:30,0.310,0.196,0.318,0.303,0.300,0.160,0.099,south,14.8,Yes
2018/05/13,18:40,0.310,0.197,0.319,0.306,0.298,0.159,0.098,south-southwest,13.1,Yes
2018/05/13,18:50,0.307,0.196,0.319,0.304,0.298,0.160,0.098,south,11.7,Yes
2018/05/13,19:00,0.309,0.197,0.319,0.305,0.300,0.159,0.098,south,12.0,Yes
2018/05/13,19:10,0.307,0.195,0.317,0.305,0.296,0.160,0.098,south,11.2,Yes
2018/05/13,19:20,0.310,0.195,0.317,0.304,0.299,0.159,0.098,south,10.3,Yes
2018/05/13,19:30,0.307,0.196,0.316,0.303,0.296,0.159,0.098,south,9.8,Yes
2018/05/13,19:40,0.309,0.195,0.316,0.302,0.297,0.160,0.097,south-southwest,9.2,Yes
2018/05/13,19:50,0.307,0.196,0.317,0.303,0.295,0.158,0.097,south,8.9,Yes
2018/05/13,20:00,0.309,0.195,0.316,0.302,0.299,0.160,0.097,south-southwest,8.4,Yes
2018/05/13,20:10,0.309,0.195,0.316,0.303,0.294,0.159,0.097,south,8.7,Yes
2018/05/13,20:20,0.309,0.195,0.315,0.303,0.298,0.160,0.098,south,7.3,Yes
2018/05/13,20:30,0.309,0.196,0.317,0.303,0.297,0.160,0.099,south-southwest,6.9,Yes
2018/05/13,20:40,0.307,0.195,0.316,0.304,0.297,0.160,0.099,south-southwest,5.9,Yes
2018/05/13,20:50,0.309,0.196,0.316,0.302,0.297,0.160,0.099,south,5.6,Yes
2018/05/13,21:00,0.307,0.197,0.317,0.304,0.297,0.160,0.099,south,4.5,Yes
2018/05/13,21:10,0.309,0.195,0.315,0.301,0.297,0.160,0.100,south-southwest,3.3,Yes
2018/05/13,21:20,0.307,0.195,0.315,0.302,0.295,0.159,0.100,south,2.6,Yes
2018/05/13,21:30,0.306,0.195,0.313,0.299,0.297,0.160,0.099,south,4.6,Yes
2018/05/13,21:40,0.305,0.195,0.313,0.299,0.294,0.158,0.099,south,5.8,Yes
2018/05/13,21:50,0.306,0.194,0.312,0.299,0.297,0.159,0.099,south,5.9,Yes
2018/05/13,22:00,0.304,0.194,0.310,0.298,0.293,0.160,0.099,south,7.0,Yes
2018/05/13,22:10,0.303,0.195,0.311,0.297,0.297,0.158,0.099,south,5.4,Yes
2018/05/13,22:20,0.304,0.194,0.310,0.296,0.293,0.157,0.099,south-southwest,4.7,Yes
2018/05/13,22:30,0.302,0.195,0.310,0.299,0.297,0.159,0.101,south,5.7,Yes
2018/05/13,22:40,0.306,0.196,0.310,0.297,0.296,0.159,0.101,south,8.1,Yes
2018/05/13,22:50,0.304,0.196,0.312,0.299,0.298,0.160,0.101,-,CALM,Yes
2018/05/13,23:00,0.306,0.195,0.310,0.299,0.298,0.159,0.101,south-southwest,6.6,No
2018/05/13,23:10,0.304,0.196,0.311,0.299,0.296,0.159,0.099,south-southwest,4.9,No
2018/05/13,23:20,0.305,0.194,0.310,0.299,0.297,0.158,0.099,southwest,3.2,No
2018/05/13,23:30,0.302,0.192,0.311,0.297,0.297,0.157,0.098,west-northwest,4.4,Yes
2018/05/13,23:40,0.303,0.194,0.308,0.297,0.295,0.158,0.098,north-northwest,7.4,No
2018/05/13,23:50,0.303,0.193,0.308,0.295,0.294,0.157,0.098,north-northwest,6.8,No
